TimeHST,TemperatureF,Dew PointF,Humidity,Sea Level PressureIn,VisibilityMPH,Wind Direction,Wind SpeedMPH,Gust SpeedMPH,PrecipitationIn,Events,Conditions,WindDirDegrees,DateUTC
12:32 AM,71.6,69.8,94,30.02,10.0,WNW,5.8,-,N/A,,Overcast,290,2012-09-08 10:32:00
12:53 AM,72.0,68.0,87,30.01,10.0,West,8.1,-,N/A,,Overcast,280,2012-09-08 10:53:00
1:28 AM,71.6,69.8,94,30.01,10.0,West,5.8,-,N/A,,Overcast,280,2012-09-08 11:28:00
1:53 AM,73.0,69.1,87,29.99,10.0,Calm,Calm,-,N/A,,Scattered Clouds,0,2012-09-08 11:53:00
2:25 AM,71.6,68.0,88,29.99,10.0,WNW,3.5,-,N/A,,Mostly Cloudy,300,2012-09-08 12:25:00
2:53 AM,75.0,69.1,82,29.99,10.0,ESE,9.2,-,N/A,,Overcast,120,2012-09-08 12:53:00
3:20 AM,75.2,69.8,83,29.99,10.0,East,8.1,-,N/A,,Scattered Clouds,100,2012-09-08 13:20:00
3:53 AM,75.9,69.1,79,29.99,10.0,East,10.4,-,N/A,,Overcast,100,2012-09-08 13:53:00
4:53 AM,73.0,68.0,84,29.99,10.0,West,6.9,-,N/A,,Overcast,280,2012-09-08 14:53:00
5:42 AM,71.6,68.0,88,30.01,10.0,West,6.9,-,N/A,,Mostly Cloudy,280,2012-09-08 15:42:00
5:53 AM,72.0,68.0,87,30.01,10.0,WSW,6.9,-,N/A,,Mostly Cloudy,250,2012-09-08 15:53:00
6:53 AM,72.0,68.0,87,30.03,10.0,West,5.8,-,N/A,,Scattered Clouds,280,2012-09-08 16:53:00
7:36 AM,75.2,69.8,83,30.05,10.0,SW,3.5,-,N/A,,Mostly Cloudy,230,2012-09-08 17:36:00
7:53 AM,75.9,69.1,79,30.05,10.0,West,3.5,-,N/A,,Mostly Cloudy,280,2012-09-08 17:53:00
8:50 AM,80.6,69.8,70,30.08,10.0,East,9.2,-,N/A,,Mostly Cloudy,90,2012-09-08 18:50:00
8:53 AM,80.1,69.1,69,30.07,10.0,East,8.1,-,N/A,,Mostly Cloudy,100,2012-09-08 18:53:00
9:04 AM,80.6,68.0,65,30.08,10.0,East,9.2,-,N/A,,Scattered Clouds,90,2012-09-08 19:04:00
9:53 AM,81.0,69.1,67,30.08,10.0,East,11.5,-,N/A,,Clear,90,2012-09-08 19:53:00
10:53 AM,81.0,70.0,69,30.08,10.0,East,11.5,-,N/A,,Partly Cloudy,90,2012-09-08 20:53:00
11:53 AM,82.9,69.1,63,30.07,10.0,East,11.5,-,N/A,,Partly Cloudy,100,2012-09-08 21:53:00
12:53 PM,82.9,70.0,65,30.05,10.0,East,12.7,-,N/A,,Partly Cloudy,90,2012-09-08 22:53:00
1:53 PM,84.0,69.1,61,30.04,10.0,ENE,13.8,-,N/A,,Clear,70,2012-09-08 23:53:00
2:53 PM,82.9,69.1,63,30.02,10.0,ENE,12.7,-,N/A,,Clear,70,2012-09-09 00:53:00
3:53 PM,82.0,69.1,65,30.01,10.0,ENE,12.7,-,N/A,,Scattered Clouds,60,2012-09-09 01:53:00
4:53 PM,80.1,69.1,69,30.02,10.0,NE,9.2,-,N/A,,Partly Cloudy,50,2012-09-09 02:53:00
5:53 PM,78.1,68.0,71,30.04,10.0,NE,10.4,-,N/A,,Mostly Cloudy,50,2012-09-09 03:53:00
6:14 PM,78.8,69.8,74,30.05,10.0,NE,10.4,-,N/A,,Scattered Clouds,50,2012-09-09 04:14:00
6:53 PM,77.0,69.1,76,30.05,10.0,ENE,11.5,-,N/A,,Mostly Cloudy,60,2012-09-09 04:53:00
7:03 PM,77.0,68.0,74,30.06,10.0,ENE,11.5,-,N/A,,Scattered Clouds,60,2012-09-09 05:03:00
7:53 PM,77.0,69.1,76,30.08,10.0,NE,10.4,-,N/A,,Partly Cloudy,50,2012-09-09 05:53:00
8:53 PM,77.0,69.1,76,30.09,10.0,ENE,11.5,-,N/A,,Scattered Clouds,60,2012-09-09 06:53:00
9:15 PM,77.0,69.8,78,30.10,10.0,ENE,13.8,-,N/A,,Mostly Cloudy,60,2012-09-09 07:15:00
9:23 PM,77.0,69.8,78,30.10,10.0,ENE,12.7,-,N/A,,Scattered Clouds,60,2012-09-09 07:23:00
9:53 PM,75.9,69.1,79,30.10,10.0,ENE,11.5,-,N/A,,Partly Cloudy,70,2012-09-09 07:53:00
10:53 PM,77.0,69.1,76,30.10,10.0,ENE,9.2,-,N/A,,Partly Cloudy,60,2012-09-09 08:53:00
11:20 PM,77.0,69.8,78,30.11,10.0,ENE,12.7,-,N/A,,Mostly Cloudy,60,2012-09-09 09:20:00
11:37 PM,75.2,69.8,83,30.10,10.0,ENE,12.7,-,N/A,,Mostly Cloudy,70,2012-09-09 09:37:00
11:53 PM,75.0,70.0,84,30.09,10.0,ENE,10.4,-,N/A,,Mostly Cloudy,60,2012-09-09 09:53:00